Stornoway, United Kingdom

9:18 PM GMT on January 18, 2017 (GMT +0000)
Stornoway

Weather History for EGPO - January, 2013

Change the Weather History Date:

Wednesday, January 2, 2013

  Actual Average Record
Temperature  
Mean Temperature 46 °F -  
Max Temperature 53 °F 44 °F 53 °F (2013)
Min Temperature 39 °F 35 °F 32 °F (2011)
Degree Days  
Heating Degree Days 19    
Moisture  
Dew Point 44 °F    
Average Humidity 87    
Maximum Humidity 100    
Minimum Humidity 77    
Precipitation  
Precipitation 0.04 in 0.16 in - ()
Sea Level Pressure  
Sea Level Pressure 29.77 in    
Wind  
Wind Speed 15 mph ()    
Max Wind Speed 29 mph    
Max Gust Speed 39 mph    
Visibility 5.6 miles    
Events Rain    
Averages and records for this station are not official NWS values.
T = Trace of Precipitation, MM = Missing Value Source: Averaged Metar Reports

Daily Weather History Graph

Daily Weather History Graph

Search for Another Location

Airport or City:

Trip Planner

Search our weather history database for the weather conditions in past years. The results will help you decide how hot, cold, wet, or windy it might be!

Date:

Astronomy

Jan. 02, 2013 Rise Set
Actual Time 9:11 AM GMT 3:47 PM GMT
Civil Twilight 8:20 AM GMT 4:38 PM GMT
Nautical Twilight 7:27 AM GMT 5:31 PM GMT
Astronomical Twilight 6:39 AM GMT 6:19 PM GMT
Moon 10:25 PM GMT (1/2) 10:33 AM GMT (1/2)
Length of Visible Light 8h 18m
Length of Day
6h 35m
Waning Gibbous, 77% of the Moon is Illuminated
Jan 2
Waning Gibbous
Jan 5
Last Quarter
Jan 11
New
Jan 18
First Quarter
Jan 27
Full

Hourly Weather History & Observations

Time (GMT) Temp. Windchill Dew Point Humidity Pressure Visibility Wind Dir Wind Speed Gust Speed Precip Events Conditions
12:20 AM 39.2 °F 35.0 °F 35.6 °F 87% 29.83 in 6.2 mi SSW 5.8 mph - N/A   Unknown
12:50 AM 39.2 °F - 35.6 °F 87% 29.86 in 6.2 mi Calm Calm - N/A   Unknown
1:20 AM 39.2 °F - 35.6 °F 87% 29.86 in 6.2 mi Variable 2.3 mph - N/A   Unknown
1:50 AM 39.2 °F - 35.6 °F 87% 29.83 in 6.2 mi SSW 2.3 mph - N/A   Unknown
2:20 AM 39.2 °F 33.6 °F 35.6 °F 87% 29.83 in 6.2 mi South 8.1 mph - N/A   Unknown
2:50 AM 44 °F - 39 °F 77% 29.83 in 15 mi South 10.4 mph - - Rain Light Rain Showers
2:50 AM 42.8 °F 38.6 °F 37.4 °F 81% 29.83 in 6.2 mi SSW 6.9 mph - N/A   Unknown
3:20 AM 42.8 °F 37.5 °F 37.4 °F 81% 29.83 in 6.2 mi South 9.2 mph - N/A   Drizzle
3:50 AM 42.8 °F 36.2 °F 37.4 °F 81% 29.80 in 6.2 mi South 12.7 mph - N/A Rain Light Rain
4:20 AM 42.8 °F 35.1 °F 39.2 °F 87% 29.80 in 6.2 mi South 16.1 mph - N/A Rain Rain
4:50 AM 42.8 °F 34.0 °F 39.2 °F 87% 29.80 in 2.5 mi South 20.7 mph - N/A Rain Light Rain
5:20 AM 42.8 °F 33.8 °F 39.2 °F 87% 29.77 in 1.2 mi South 21.9 mph - N/A Rain Light Rain
5:50 AM 44 °F - 42 °F 89% 29.73 in 2 mi South 27.6 mph - - Rain Rain
5:50 AM 42.8 °F 32.9 °F 39.2 °F 87% 29.71 in 1.4 mi South 26.5 mph - N/A Rain Light Rain
6:20 AM 44.6 °F 35.1 °F 41.0 °F 87% 29.71 in 4.3 mi South 27.6 mph - N/A Rain Light Rain
6:50 AM 42.8 °F 32.5 °F 39.2 °F 87% 29.71 in 5.0 mi South 28.8 mph - N/A Rain Light Rain
7:20 AM 46.4 °F 37.9 °F 42.8 °F 87% 29.71 in 6.2 mi South 25.3 mph - N/A Rain Light Rain
7:50 AM 46.4 °F 37.9 °F 42.8 °F 87% 29.68 in 6.2 mi South 25.3 mph - N/A   Mostly Cloudy
8:20 AM 46.4 °F 38.5 °F 42.8 °F 87% 29.71 in 6.2 mi SSW 21.9 mph - N/A   Mostly Cloudy
8:50 AM 49 °F - 47 °F 90% 29.71 in 13 mi SSW 18.4 mph - -   Mostly Cloudy
8:50 AM 48.2 °F - 44.6 °F 87% 29.71 in 6.2 mi SSW 17.3 mph - N/A   Light Drizzle
9:20 AM 48.2 °F - 44.6 °F 87% 29.71 in 2.8 mi SSW 10.4 mph - N/A   Light Drizzle
9:50 AM 50.0 °F - 46.4 °F 87% 29.71 in 3.7 mi SW 15.0 mph - N/A   Light Drizzle
10:20 AM 50.0 °F - 48.2 °F 94% 29.71 in 5.0 mi SW 10.4 mph - N/A   Light Drizzle
10:50 AM 50.0 °F - 48.2 °F 94% 29.74 in 6.2 mi WSW 15.0 mph - N/A   Mostly Cloudy
11:20 AM 51.8 °F - 48.2 °F 88% 29.74 in 6.2 mi SSW 9.2 mph - N/A   Mostly Cloudy
11:50 AM 52 °F - 51 °F 93% 29.73 in 3 mi SW 13.8 mph - -   Mist
11:50 AM 51.8 °F - 51.8 °F 100% 29.74 in 2.8 mi SW 9.2 mph - N/A   Light Drizzle
12:20 PM 53.6 °F - 50.0 °F 88% 29.74 in 6.2 mi SW 16.1 mph - N/A   Mostly Cloudy
12:50 PM 53.6 °F - 48.2 °F 82% 29.71 in 6.2 mi WSW 21.9 mph 34.5 mph N/A   Mostly Cloudy
1:20 PM 51.8 °F - 48.2 °F 88% 29.74 in 6.2 mi WSW 24.2 mph 36.8 mph N/A Rain Light Rain
1:50 PM 53.6 °F - 48.2 °F 82% 29.74 in 6.2 mi WSW 28.8 mph - N/A Rain Light Rain
2:20 PM 51.8 °F - 48.2 °F 88% 29.74 in 6.2 mi WSW 21.9 mph 33.4 mph N/A   Mostly Cloudy
2:50 PM 53 °F - 50 °F 87% 29.73 in 14 mi WSW 25.3 mph - -   Mostly Cloudy
2:50 PM 51.8 °F - 46.4 °F 82% 29.74 in 6.2 mi WSW 25.3 mph - N/A   Mostly Cloudy
3:20 PM 51.8 °F - 48.2 °F 88% 29.74 in 6.2 mi WSW 21.9 mph - N/A   Mostly Cloudy
3:50 PM 51.8 °F - 48.2 °F 88% 29.74 in 6.2 mi SW 18.4 mph - N/A   Light Drizzle
4:20 PM 50.0 °F - 46.4 °F 87% 29.74 in 6.2 mi SW 19.6 mph - N/A   Mostly Cloudy
4:50 PM 51.8 °F - 48.2 °F 88% 29.74 in 3.7 mi SW 20.7 mph 33.4 mph N/A Rain Light Rain
5:20 PM 51.8 °F - 48.2 °F 88% 29.74 in 3.7 mi WSW 24.2 mph - N/A Rain Light Rain
5:50 PM 52 °F - 50 °F 91% 29.75 in 7 mi WSW 25.3 mph - - Rain Light Rain
5:50 PM 51.8 °F - 48.2 °F 88% 29.74 in 3.7 mi WSW 24.2 mph - N/A   Light Drizzle
6:20 PM 51.8 °F - 48.2 °F 88% 29.77 in 5.0 mi WSW 23.0 mph 34.5 mph N/A   Mostly Cloudy
6:50 PM 50.0 °F - 46.4 °F 87% 29.77 in 4.3 mi WSW 23.0 mph - N/A   Mostly Cloudy
7:20 PM 51.8 °F - 48.2 °F 88% 29.77 in 5.6 mi WSW 24.2 mph 35.7 mph N/A   Mostly Cloudy
7:50 PM 51.8 °F - 46.4 °F 82% 29.77 in 3.7 mi WSW 23.0 mph - N/A Rain Light Rain
8:20 PM 50.0 °F - 46.4 °F 87% 29.77 in 4.3 mi WSW 27.6 mph 39.1 mph N/A Rain Light Rain
8:50 PM 51 °F - 49 °F 91% 29.79 in 10 mi WSW 26.5 mph - - Rain Rain
8:50 PM 50.0 °F - 46.4 °F 87% 29.80 in 6.2 mi WSW 24.2 mph 36.8 mph N/A   Mostly Cloudy
9:20 PM 50.0 °F - 46.4 °F 87% 29.80 in 3.1 mi WSW 25.3 mph - N/A   Mostly Cloudy
9:50 PM 50.0 °F - 46.4 °F 87% 29.80 in 5.0 mi WSW 23.0 mph - N/A   Mostly Cloudy
10:20 PM 50.0 °F - 44.6 °F 82% 29.83 in 5.6 mi WSW 19.6 mph - N/A   Partly Cloudy
10:50 PM 50.0 °F - 44.6 °F 82% 29.83 in 5.6 mi WSW 24.2 mph 39.1 mph N/A   Scattered Clouds
11:20 PM 50.0 °F - 44.6 °F 82% 29.83 in 5.0 mi West 25.3 mph 36.8 mph N/A   Partly Cloudy
11:50 PM 51 °F - 46 °F 79% 29.85 in 5 mi WSW 24.2 mph - - Rain Light Rain Showers
11:50 PM 50.0 °F - 44.6 °F 82% 29.86 in 4.3 mi WSW 20.7 mph - N/A   Unknown